www.pogodaiklimat.ru

Погода и климат >> Архив погоды >> Украина >> Кирилловка


ПОГОДА в Кирилловке

  • Прогноз погоды в Кирилловке
  • Монитор погоды в Кирилловке

АРХИВ ПОГОДЫ в Кирилловке

Время (UTC), дата Ветер
(напр.,м/с)
 
Видим.   Явления Облачность Т
(С)
Тd
(С)
f
(%)
Тe
(С)
Тes
(С)
Комфортность P
(гПа)
Po
(гПа)
Тmin
(С)
Tmax
(С)
R
(мм)
R24
(мм)
S
(см)
21 16.09 штиль 0 10 км ясно +14.1 +5.7 57 +14 +14 1012.0 985.8
00 17.09 штиль 0 10 км ясно +13.8 +11.0 83 +13 +13 1011.0 984.8
03 17.09 штиль 0 4000 м дымка ясно +13.2 +12.1 93 +13 +13 1010.0 983.8
06 17.09 Ю 1 8000 м дымка 10/10 300 м
[St]
+15.6 +14.0 90 +16 +16 1010.0 984.0 +13.2
09 17.09 ЮЗ 1 13 км 8/0
[Ac lent]
+22.3 +13.1 56 +25 +25 комфорт 1009.0 983.6
12 17.09 СЗ 2 13 км 10/0
[Ac As]
+18.8 +9.3 54 +20 +20 1009.0 983.3
15 17.09 СЗ 1 13 км {ливн. осадки} 9/8 600 м
[Sc Ac lent]
+17.0 +11.0 68 +18 +18 1008.0 982.2
18 17.09 штиль 0 10 км {ливн. осадки} ясно +13.4 +11.3 87 +13 +13 1010.0 983.8 +22.4 0.0
21 17.09 штиль 0 4000 м дымка 10/0
[Ac As]
+12.0 +10.9 93 +11 +11 1010.0 983.7
00 18.09 штиль 0 4000 м дымка 10/0
[Ac As]
+10.8 +9.2 90 +10 +10 1009.0 982.6
03 18.09 штиль 0 4000 м дымка 10/10 570 м
[Cb calv]
+12.8 +11.4 91 +12 +12 1009.0 982.8
06 18.09 Ю 1 9000 м в посл. час ливневой дождь 8/6 300 м
[Cb calv Ac trans]
+13.5 +12.1 91 +14 +14 1007.0 980.9 +10.8 2
09 18.09 ЮЗ 3 13 км 10/8 1080 м
[Sc Ac As]
+21.6 +14.0 62 +24 +24 комфорт 1004.0 978.7
12 18.09 З 2 12 км {гроза, ливн. осадки} 9/6 300 м
[Cb calv Ac As]
+16.4 +11.5 73 +17 +17 1007.0 981.1 0.6
15 18.09 З 3 12 км 10/10 600 м
[Sc]
+15.5 +10.5 72 +15 +15 1009.0 983.0
18 18.09 З 2 10 км ясно +10.0 +4.4 68 +9 +9 1013.0 986.4 +21.7 0.6
21 18.09 З 1 10 км ясно +7.4 +3.6 77 +7 +7 1015.0 988.1
00 19.09 З 1 10 км ясно +5.4 +3.2 86 +4 +4 1017.0 989.8
03 19.09 штиль 0 4000 м дымка ясно +3.8 +2.6 92 +3 +3 1019.0 991.6
06 19.09 З 2 12 км ясно +10.0 +6.2 77 +9 +12 1020.0 993.2 +3.8
09 19.09 З 2 14 км 8/8 600 м
[Cu med, cong]
+15.0 +6.0 55 +15 +15 1020.0 993.6
12 19.09 З 3 14 км 8/8 600 м
[Cu med, cong]
+16.0 +4.7 47 +16 +16 1019.0 992.8
15 19.09 З 2 14 км 4/4 600 м
[Cu med, cong]
+15.1 +4.8 50 +15 +15 1019.0 992.7
18 19.09 штиль 0 10 км 3/0
[Ac trans]
+8.8 +3.2 68 +8 +8 1020.0 993.1 +16.2
21 19.09 штиль 0 10 км 6/0
[Ac trans]
+5.6 +0.8 71 +5 +5 1020.0 992.7
00 20.09 штиль 0 10 км 10/0
[Cs]
+4.6 +0.7 76 +4 +4 1020.0 992.6
03 20.09 штиль 0 10 км 10/0
[Ac trans Cc]
+3.8 +0.1 77 +3 +3 1019.0 991.6
06 20.09 З 1 13 км 6/0
[Ac cast]
+11.6 +4.1 60 +12 +13 1018.0 991.4 +3.8
09 20.09 З 1 14 км 10/0
[Ac As]
+14.8 +3.9 48 +15 +15 1017.0 990.7
12 20.09 З 1 14 км 10/4 600 м
[Cb calv As op]
+15.5 +3.6 45 +16 +16 1015.0 988.8
15 20.09 З 1 13 км 3/3 600 м
[Cb calv]
+13.8 +4.7 54 +14 +15 1015.0 988.7
18 20.09 штиль 0 10 км ясно +9.2 +4.2 71 +9 +9 1016.0 989.2 +15.6
21 20.09 штиль 0 10 км 3/0
[Ac lent]
+5.9 +3.7 86 +5 +5 1017.0 989.9
00 21.09 штиль 0 10 км ясно +5.8 +3.3 84 +5 +5 1017.0 989.8
03 21.09 штиль 0 4000 м дымка ясно +2.5 +1.6 94 +1 +1 1018.0 990.5
06 21.09 З 1 12 км ясно +8.1 +5.0 81 +7 +11 1018.0 991.1 +2.5
09 21.09 З 2 13 км 8/8 600 м
[Cu med, cong]
+12.3 +2.5 51 +12 +12 1018.0 991.4
12 21.09 СЗ 3 14 км 8/8 600 м
[Cb calv]
+14.5 +0.7 39 +14 +14 1018.0 991.6
15 21.09 З 3 13 км 3/0
[Ac lent]
+11.2 +2.0 53 +10 +10 1019.0 992.3
18 21.09 З 1 10 км ясно +6.5 +3.1 79 +6 +6 1021.0 993.8 +14.6
21 21.09 штиль 0 10 км ясно +3.2 +1.1 86 +2 +2 1022.0 994.4
00 22.09 штиль 0 4000 м дымка ясно +2.8 +1.8 93 +2 +2 1021.0 993.4
03 22.09 Ю 1 10 км 10/0
[Cc]
+5.6 -0.0 67 +5 +5 1019.0 991.8
06 22.09 ЮЗ 2 13 км 10/0
[Ac As]
+8.9 +2.0 62 +7 +7 1018.0 991.1 +2.8
09 22.09 З 4 14 км 10/10 1380 м
[Sc]
+15.8 +5.7 51 +15 +15 1016.0 989.8
12 22.09 З 6 13 км 10/10 1000 м
[Sc]
+15.4 +7.4 59 +14 +14 1015.0 988.8
15 22.09 З 4 13 км ясно +15.9 +7.6 58 +15 +15 1015.0 988.9
18 22.09 З 1 10 км ясно +10.9 +6.8 76 +11 +11 1016.0 989.4 +15.9
21 22.09 З 1 10 км ясно +9.0 +7.0 87 +8 +8 1016.0 989.2
00 23.09 З 1 10 км ясно +7.8 +5.4 85 +7 +7 1015.0 988.1
03 23.09 З 1 4000 м дымка 6/0
[Ac und]
+7.8 +6.7 93 +7 +7 1015.0 988.1
06 23.09 З 1 12 км ясно +13.2 +8.9 75 +13 +17 1016.0 989.6 +7.8
09 23.09 С 2 13 км 6/6 600 м
[Cu med, cong]
+17.4 +9.0 58 +18 +22 1015.0 989.0
12 23.09 С 2 13 км 8/5 1000 м
[Sc Ci fib]
+14.4 +6.0 57 +14 +14 1016.0 989.7
15 23.09 С 2 13 км 3/0
[Ac lent]
+11.5 +5.1 65 +11 +11 1017.0 990.4
18 23.09 С 1 10 км ясно +8.4 +3.4 71 +8 +8 1019.0 992.0 +17.5

 

Местоположение метеостанции Кирилловка (Запорожская область, Украина): широта 47.33 долгота 36.33 высота над уровнем моря 221 м.

В архиве по умолчанию представлена погода в Кирилловке за последнюю неделю. Архивные данные за месяц целиком и за предыдущие месяцы, начиная с января 2011 года, Вы можете получить, выбрав интересующий диапазон дат из раскрывающегося списка и нажав кнопку "Ввод!".


*Определитесь, кто Вы:
робот инопланетянин человек

Внимание! Время в таблицах - всемирное. Для получения местного времени необходимо прибавить поправку, которая равна 2 ч.

Смотрите также архив погоды в соседних городах и на ближайших метеорологических станциях:

Погода в Гуляйполе (Запорожская область, Украина) (38 км)
Погода в Бердянске (Запорожская область, Украина) (73 км)
Погода в Пришибе (Запорожская область, Украина) (76 км)
Погода в Ботиево (Запорожская область, Украина) (81 км)
Погода в Волновахе (Донецкая область, Украина) (83 км)
Погода в Чаплино (Днепропетровская область, Украина) (89 км)
Погода в Мелитополе (Запорожская область, Украина) (92 км)
Погода в Мариуполе (Донецкая область, Украина) (95 км)
Погода в Запорожье (Запорожская область, Украина) (111 км)
Погода в Должанке (Краснодарский край, Россия) (128 км)

Пояснения к столбцам:

Ветер - указаны скорость ветра в м/с - средняя за 10 мин, порывы в срок и между сроками (в фигурных скобках) и направление, откуда дует ветер: С - северный, СВ - северо-восточный, В - восточный, ЮВ - юго-восточный, Ю - южный, ЮЗ - юго-западный, З - западный, СЗ - северо-западный.
Видимость - горизонтальная дальность видимости в метрах или километрах. При видимости от 1 до 10 км при отсутствии осадков обычно наблюдается дымка, при ухудшении видимости до 1 км и менее - туман. В сухую погоду видимость может ухудшаться дымом, пылью или мглою.
Явления - указаны атмосферные явления, наблюдавшиеся в срок или в последний час перед сроком; фигурными скобками обозначены явления, наблюдавшиеся между сроками (за 1-3 часа до срока); квадратными скобками обозначены град или гололедные отложения с указанием их диаметра в мм.
Облачность - указаны через наклонную черту общая и нижняя облачность в баллах и высота нижней границы облаков в метрах; квадратными скобками обозначены формы облаков: Ci - перистые, Cs - перисто-слоистые, Cc - перисто-кучевые, Ac - высококучевые, As - высокослоистые, Sc - слоисто-кучевые, Ns - слоисто-дождевые, Cu - кучевые, Cb - кучево-дождевые. Подробнее классификацию облаков см. в Атласе облаков (PDF).
T - Температура воздуха - температура, измеренная на высоте 2 м над землей.
Td - Температура точки росы - температура, при понижении до которой содержащийся в воздухе водяной пар достигнет насыщения.
f - Относительная влажность воздуха - влажноcть воздуха, измеренная на высоте 2 м над землей.
Te - Эффективная температура - температура, которую ощущает одетый по сезону человек в тени. Характеристика душности погоды. При расчете учитывается влияние влажности воздуха и скорости ветра на теплоощущения человека.
Tes - Эффективная температура на солнце - температура, которую ощущает человек, с поправкой на солнечный нагрев. Характеристика знойности погоды. Зависит от высоты солнца над горизонтом, облачности и скорости ветра. Ночью, в пасмурную погоду, а также при ветре 12 м/с и более поправка равна нулю.
P - Атмосферное давление - приведенное к уровню моря атмосферное давление.
Po - Атмосферное давление - измеренное на уровне метеостанции атмосферное давление.
Tmin - Минимальная температура - минимум температуры воздуха на высоте 2 м над землей.
Tmax - Максимальная температура - максимум температуры воздуха на высоте 2 м над землей.
R - Количество осадков - Количество выпавших осадков за период времени, мм. При наведении курсора мыши на число - период времени, за который выпало указанное количество осадков.
R24 - Количество осадков - Количество выпавших осадков за 24 часа, мм.
S - Снежный покров - Высота снежного покрова, см. При наведении курсора мыши на число - состояние снежного покрова и степень покрытия местности в баллах.